Terug naar catalogus

COSMOS 1375 DEB

ActiefLEO
NORAD 16210·DEBRIS·🇷🇺 Russia

Gelanceerd Jun 6, 1982 vanaf Plesetsk Cosmodrome

Loading…

Volgende Passages (komende 24 uur)

TLE

VersSource: Space-Track

Epoch: Sep 14, 2026, 10:34 UTC

1 16210U 82055M   26257.44053539 -.00000068  00000-0  13008-4 0  9996
2 16210  65.8326 219.6267 0022133  18.5270  66.7701 13.74591189 52180

Volg COSMOS 1375 DEB in realtime met AllMySat

Download on the App Store